Location: Peterborough
(44.3091°N, 78.3197°W)
Time: 16:12:53
(UTC-04:00)

Explorer 7 - Pass Details

Date: 28 March 2023
Orbit: 477 x 653 km, 50.3° (Epoch: 04 June)

Event Time Altitude Azimuth Distance (km) Brightness Sun altitude
Rises 16:25:46 0° 223° (SW) 2,943 11.6 31.8°
Reaches altitude 10° 16:28:11 10° 218° (SW) 2,018 11.0 31.4°
Maximum altitude 16:32:41 49° 144° (SE) 794 8.0 30.7°
Drops below altitude 10° 16:36:58 10° 69° (ENE) 1,931 9.2 30.1°
Sets 16:39:14 0° 64° (ENE) 2,803 9.9 29.7°
